Theta_e
347 347 347 346 346 346 346 344 342 338 335 333 331 330 330 331 330 330 330 330 330 331 332 333 336 337 337 336 336 335 335 335 336 337 338 338 339 339 339 338 338 338 338 338 338 339 338 339 339 339 340 340 340 341 342 344 345 346 348 348 348 349 350 350 349 345 341 340 338 337 338 338 338 338 337 336 334 332 331 330 329 329 328 327 327
347 347 347 346 346 347 346 346 345 343 341 338 334 331 330 330 330 329 329 328 329 329 329 330 332 334 335 336 336 336 335 334 334 333 333 334 335 335 334 335 335 336 337 337 337 337 337 337 337 337 338 338 338 339 339 339 340 342 344 345 346 348 350 350 350 347 341 338 337 336 336 336 336 336 335 334 332 330 329 329 328 327 327 327 327
347 347 347 347 347 347 346 346 346 346 345 343 340 336 332 330 329 329 329 328 328 328 328 328 329 330 332 333 334 334 333 332 331 329 329 328 329 328 328 328 329 330 332 333 335 336 336 336 336 337 337 337 336 337 338 338 338 339 339 341 342 344 346 347 347 345 341 337 336 336 335 335 335 334 334 333 331 329 329 328 327 327 327 327 327
347 347 347 347 347 346 347 347 347 346 346 345 345 343 339 335 331 329 329 329 328 328 327 327 327 328 329 330 331 332 331 330 328 327 327 327 327 327 327 326 326 326 327 327 329 330 332 333 334 336 336 336 336 336 336 336 337 337 337 338 338 340 341 342 342 342 339 337 336 335 334 334 334 335 334 333 330 329 328 327 327 327 328 327 328
347 347 347 347 346 347 347 347 347 347 347 346 346 346 344 342 337 332 330 328 328 328 328 327 326 327 327 327 328 328 328 328 327 326 326 326 326 326 327 326 326 326 326 326 325 326 326 328 329 332 333 335 335 335 335 336 336 336 336 336 336 337 338 339 339 339 339 337 335 333 332 333 333 333 334 334 331 328 327 327 326 327 328 327 327
347 347 347 346 346 347 347 347 347 347 347 347 347 346 346 346 344 340 336 332 329 327 327 327 327 326 326 326 326 326 326 326 326 326 326 326 326 326 326 326 326 325 325 325 325 324 324 325 327 329 330 331 332 334 335 336 336 336 336 336 336 337 337 338 338 339 339 337 335 333 332 332 332 332 333 333 331 329 327 326 325 327 328 327 326
348 347 347 347 347 347 347 347 348 348 347 347 347 347 347 347 346 346 344 340 336 332 329 327 327 327 326 326 325 326 325 325 325 326 326 326 326 326 326 325 325 325 325 325 325 325 324 324 325 327 329 329 330 331 332 333 334 335 335 335 336 336 337 337 337 337 337 336 335 333 332 331 331 330 330 330 330 329 328 327 326 326 327 327 326
347 347 347 347 347 347 348 348 348 348 348 348 347 347 347 347 347 347 347 346 344 340 336 332 329 327 327 326 326 326 325 325 325 325 325 325 325 325 324 324 325 324 325 325 325 325 326 325 324 325 327 329 330 330 331 331 332 333 333 334 334 335 335 336 336 335 335 335 334 332 331 331 330 330 329 328 329 330 331 330 328 326 327 327 326
347 347 347 347 348 348 348 347 347 347 347 348 348 348 347 347 347 347 348 348 347 346 344 341 337 333 329 327 327 326 326 326 326 325 325 325 325 325 324 325 325 325 325 326 326 326 327 327 326 324 324 327 329 330 331 331 332 332 332 333 333 334 334 334 334 334 334 333 332 330 329 329 329 329 329 328 329 331 333 333 331 328 327 327 327
348 348 348 347 348 348 348 347 347 347 348 347 348 348 347 348 348 348 348 348 348 348 348 347 345 341 337 333 330 328 327 327 327 328 327 327 327 326 326 326 326 326 327 327 328 328 328 328 328 325 324 325 327 329 330 331 331 332 332 333 333 332 333 332 332 332 332 331 330 329 328 327 327 327 328 328 330 334 336 336 334 331 328 327 328
347 347 348 348 348 348 348 348 348 347 347 348 347 347 348 348 348 348 348 348 349 349 349 349 349 347 344 340 337 334 330 330 330 329 329 329 329 329 329 329 329 329 329 329 330 330 330 330 329 327 325 324 325 327 328 329 330 331 332 332 333 332 332 332 331 331 331 330 330 329 328 327 327 327 327 328 333 339 340 338 335 333 332 330 329
348 348 348 348 348 348 347 348 348 348 348 348 348 347 347 348 348 348 348 349 349 349 350 350 350 350 349 346 343 339 335 333 333 333 332 333 332 333 333 333 333 332 331 332 332 332 331 331 330 329 326 325 325 326 328 328 329 330 331 331 332 332 332 332 331 331 331 331 330 329 328 327 326 326 327 332 339 343 342 339 335 334 335 333 331
349 349 349 348 348 348 348 348 348 348 348 348 348 348 347 348 348 348 348 349 349 350 350 351 351 351 351 350 349 346 341 337 335 335 335 335 335 336 336 337 337 336 335 334 334 333 333 332 331 330 327 325 326 327 328 329 329 330 331 331 331 331 331 331 331 331 331 331 330 328 327 326 326 326 328 335 341 342 341 339 337 336 336 333 331
350 350 350 349 349 348 348 348 348 348 348 348 348 347 348 348 348 348 349 349 349 350 351 351 352 352 352 352 352 351 348 344 341 339 338 337 336 337 337 338 338 338 337 337 336 335 333 332 331 330 328 326 326 327 329 330 332 332 332 331 331 330 331 331 330 330 331 330 330 328 326 327 327 326 329 334 337 338 338 338 339 339 337 333 331
351 351 351 350 350 349 348 348 349 348 349 348 348 347 348 348 348 348 348 349 349 350 351 351 352 352 353 353 352 353 352 350 348 347 344 342 341 340 340 340 340 339 339 338 337 336 334 332 331 329 328 327 326 327 329 332 334 335 335 333 332 331 331 330 330 330 330 330 330 329 327 328 328 328 330 333 334 335 336 337 337 337 336 333 332
350 351 352 351 351 350 350 350 350 350 350 349 349 349 349 349 349 349 349 349 350 351 352 352 352 353 353 353 353 353 353 353 352 352 351 349 349 348 346 343 342 341 340 338 337 336 334 332 330 328 327 327 326 327 330 333 335 336 336 335 333 333 331 330 329 329 329 329 329 329 328 329 329 329 330 333 335 336 337 338 337 338 339 338 337
347 349 351 352 352 351 351 351 351 351 351 350 350 350 349 348 349 349 349 350 350 351 352 353 353 353 353 353 354 354 354 354 354 353 353 354 353 352 349 346 344 342 340 339 338 337 335 332 329 328 327 327 327 328 331 334 336 337 337 336 334 333 332 330 329 328 329 328 328 328 328 328 329 330 331 333 335 339 341 342 341 343 346 346 343
348 349 350 351 352 352 352 352 352 352 352 352 351 351 351 350 350 350 350 351 352 352 353 353 354 354 354 354 354 354 354 355 355 355 355 355 355 354 351 349 346 343 340 339 339 338 336 332 330 329 328 328 329 330 332 334 336 337 337 336 335 333 331 330 329 329 328 328 328 328 328 328 328 329 330 332 335 339 344 344 345 348 351 350 348
345 348 349 350 352 353 352 352 353 353 353 353 353 353 352 352 351 351 351 353 353 353 353 354 354 355 355 355 355 355 355 355 355 356 356 356 356 356 355 353 349 344 340 339 339 338 336 333 331 330 330 329 330 331 332 334 336 337 337 337 336 333 330 330 329 329 329 329 329 329 328 328 328 328 329 331 334 339 343 345 346 349 350 350 350
335 337 341 343 347 352 353 353 353 353 354 354 354 354 354 353 354 353 354 354 354 355 355 355 356 356 356 356 356 356 356 356 356 356 356 356 357 357 357 356 351 344 340 339 339 338 336 335 333 332 331 332 332 332 333 334 335 337 339 339 336 332 330 331 330 330 330 330 330 329 329 329 329 329 329 331 333 336 339 342 345 347 348 349 349
329 330 330 332 336 343 349 352 353 354 354 354 354 355 355 355 356 356 356 357 357 357 357 357 357 357 357 357 357 357 357 356 356 356 356 356 357 357 358 358 354 348 344 341 340 339 337 335 334 333 333 333 332 333 334 334 335 338 340 339 335 333 335 336 334 332 332 332 332 331 331 330 330 330 330 332 333 335 338 340 343 345 347 348 349
327 328 328 327 328 332 337 343 349 353 354 354 355 355 355 356 356 355 356 357 357 358 358 358 358 358 358 358 358 357 357 356 356 356 356 356 357 357 358 358 357 354 351 346 341 340 338 336 334 334 334 334 334 335 335 336 337 338 339 338 338 339 342 343 342 339 337 336 336 337 336 335 334 334 334 336 338 340 342 343 344 346 348 348 348
327 327 328 329 329 329 332 336 341 346 350 352 354 354 355 354 354 352 353 355 356 357 358 358 358 357 358 358 358 357 356 356 356 356 355 356 356 357 358 359 359 358 356 350 343 340 339 337 336 335 335 335 335 336 337 339 338 337 338 340 342 345 347 348 347 345 343 343 345 345 344 342 341 340 340 341 343 345 347 348 348 348 349 348 348
328 327 327 329 330 330 331 333 336 340 344 348 351 353 354 354 354 352 353 353 354 355 357 358 358 358 358 358 358 358 357 355 355 356 355 355 355 356 357 358 359 359 359 355 349 345 342 339 337 336 337 337 337 339 340 341 340 337 338 341 345 348 350 350 350 349 348 348 349 349 347 345 345 345 344 345 347 348 349 349 350 350 350 350 350
329 328 327 328 330 331 330 330 334 337 340 344 347 349 352 353 353 352 352 352 353 355 357 359 360 360 360 360 359 359 358 355 354 355 355 355 355 355 356 357 358 359 360 358 356 351 347 342 339 339 340 340 341 343 342 341 341 339 340 343 346 349 350 350 350 349 348 348 349 349 349 348 347 348 348 349 350 350 350 351 351 352 351 350 351
328 329 328 328 331 333 331 328 329 332 335 341 347 350 351 352 351 351 351 350 353 356 357 359 361 361 360 360 360 360 359 356 353 354 354 354 354 354 354 356 357 359 359 360 358 356 353 349 346 345 345 344 344 344 343 342 343 343 344 346 348 349 349 349 349 349 348 347 348 349 350 349 349 349 350 351 351 351 353 354 354 353 352 352 353
326 328 330 331 332 333 334 332 330 330 330 333 342 350 353 353 351 350 349 349 351 356 357 359 360 360 359 358 359 360 359 355 351 352 353 353 353 353 354 355 356 358 359 360 360 359 357 355 352 349 348 347 346 346 346 345 346 345 345 346 347 347 348 348 348 348 348 347 347 349 349 349 349 349 350 352 353 354 355 355 354 352 352 354 356
324 326 329 332 333 333 336 336 334 333 331 329 333 343 351 355 355 353 352 353 356 357 358 359 359 357 356 356 355 356 356 352 351 352 352 352 353 353 354 355 356 357 359 360 360 360 358 357 355 353 351 349 348 348 348 348 347 346 345 346 346 346 347 348 348 348 347 347 347 347 347 348 348 349 351 352 354 355 354 353 352 350 351 353 353
322 324 327 331 332 333 335 336 336 335 334 333 334 338 345 351 355 356 355 356 358 358 358 359 358 355 354 354 354 354 353 351 350 351 350 352 353 353 354 355 356 358 359 360 360 360 359 358 356 354 353 352 350 349 349 349 349 348 347 347 347 347 347 348 348 347 346 346 346 346 347 348 348 349 351 352 353 354 354 354 354 353 354 354 353
320 322 324 328 331 333 334 335 335 335 334 334 336 337 340 345 351 355 355 355 357 358 358 358 358 358 358 357 355 355 354 352 352 352 353 353 353 353 354 355 355 356 357 358 358 359 359 358 357 356 354 353 352 351 350 351 350 349 348 347 347 349 349 348 348 347 345 346 346 347 349 350 350 351 353 354 354 354 355 354 354 353 354 354 353
320 320 322 324 329 332 333 333 334 333 332 332 334 335 335 337 344 351 354 356 357 358 358 357 355 356 357 358 357 357 355 354 354 355 355 355 354 354 355 355 355 356 357 357 358 358 358 358 358 357 356 355 354 353 352 352 351 350 349 348 348 350 350 350 349 347 346 346 348 349 351 351 352 354 355 355 356 356 355 355 353 352 353 353 353
320 320 320 322 326 330 332 333 333 333 332 331 333 336 335 332 335 343 351 356 358 359 360 360 357 354 355 356 357 357 356 354 355 356 356 356 355 355 356 356 356 357 357 357 358 358 358 358 358 357 357 356 355 354 353 353 352 351 351 351 351 351 351 350 349 348 347 348 350 351 352 354 355 356 356 356 355 354 354 354 352 352 353 353 354
320 320 320 320 323 327 330 332 333 334 332 328 328 333 337 337 336 338 345 352 357 359 360 360 359 357 356 355 356 356 355 355 356 357 357 356 356 356 356 357 357 357 357 357 357 358 358 358 358 357 357 356 356 355 355 354 353 353 353 353 352 351 350 350 350 349 349 350 351 353 354 356 357 357 357 355 353 352 353 353 353 353 354 354 354
320 320 320 320 321 324 328 330 332 335 334 329 325 327 335 340 341 341 343 347 352 357 359 360 360 359 358 357 357 356 355 356 356 357 357 357 357 357 357 358 358 358 357 358 358 358 359 359 359 358 358 357 357 356 355 355 354 354 354 353 353 352 352 350 350 351 351 352 353 354 355 356 357 357 356 354 353 353 354 354 354 354 355 354 354
320 320 320 320 319 321 325 327 329 333 336 335 331 329 334 340 342 342 343 345 349 353 357 359 360 360 360 359 358 357 357 357 357 357 357 357 357 357 358 358 358 358 358 358 358 359 359 359 359 359 359 359 358 357 356 356 355 355 354 354 353 353 352 351 350 351 352 352 354 354 355 357 357 357 355 354 352 353 354 355 355 355 354 354 355
320 320 320 320 320 320 322 325 328 331 335 337 336 334 335 339 341 342 342 344 346 349 353 356 359 360 360 360 359 358 359 358 358 357 357 357 357 358 358 358 359 359 359 359 359 359 360 360 360 360 360 360 359 359 358 357 356 355 355 355 355 354 353 352 351 351 352 354 355 356 357 357 357 357 356 355 354 353 354 354 354 354 355 356 357
320 319 320 320 320 320 321 323 327 331 335 336 337 338 338 339 340 341 343 345 346 347 350 353 357 358 358 358 359 360 361 361 360 359 359 358 358 358 358 359 359 359 359 359 359 359 360 360 360 360 360 360 360 359 359 358 357 356 355 355 355 355 354 353 353 353 355 355 356 356 357 357 356 357 357 356 356 355 356 356 356 356 357 357 358
320 319 320 320 320 320 320 321 326 331 335 335 335 337 339 340 340 342 345 346 346 346 348 351 354 357 358 359 359 360 362 362 362 362 361 361 360 360 359 359 359 359 359 360 360 360 361 361 361 361 361 360 360 360 360 358 357 357 356 356 356 356 355 355 354 355 356 356 356 356 357 357 357 357 358 357 357 357 357 357 357 357 357 358 357
320 319 319 320 320 320 320 321 325 330 332 333 334 336 337 339 340 342 344 345 346 346 346 348 351 354 356 358 359 359 360 361 362 363 363 363 362 362 361 360 360 360 360 360 360 361 361 361 362 361 361 360 360 360 360 359 358 357 357 356 356 356 355 355 355 355 356 356 356 356 357 357 357 358 358 357 356 356 357 357 357 358 358 357 356
319 319 319 320 320 319 320 322 325 328 330 332 333 335 336 338 340 341 343 344 346 346 347 348 349 351 354 356 357 357 358 359 360 361 361 362 362 363 363 362 361 361 361 361 361 361 361 361 362 362 362 361 360 360 360 360 359 358 358 358 357 357 357 357 356 356 356 356 356 356 357 358 358 358 356 355 355 356 357 358 358 358 357 356 354
319 319 319 320 319 319 320 322 324 327 330 332 333 334 335 338 340 341 342 343 344 346 347 348 349 350 351 353 355 356 357 358 358 359 359 359 360 361 362 362 362 362 361 361 361 361 361 361 361 361 362 362 361 360 360 360 359 358 358 358 358 358 358 358 357 357 356 356 356 357 357 357 357 356 355 355 355 356 357 358 358 357 356 355 354
319 318 319 319 319 319 321 322 325 327 330 332 333 333 334 336 339 340 341 342 344 345 346 348 349 349 350 351 352 354 355 356 356 357 357 357 358 359 360 362 363 363 363 363 362 361 361 361 360 361 362 362 361 361 360 360 360 359 359 359 358 358 358 358 358 357 357 357 357 357 357 357 356 355 353 354 355 357 358 357 357 357 355 353 353
318 318 318 319 319 319 321 323 326 329 331 332 332 333 333 334 337 340 341 342 343 344 345 347 349 349 349 350 351 352 353 354 355 356 357 357 357 358 358 359 360 362 362 362 362 362 362 361 361 361 361 362 362 362 361 361 360 360 359 359 359 359 359 359 359 358 358 357 357 357 357 356 355 353 353 355 356 358 357 356 355 354 353 351 350
318 318 319 319 319 320 322 325 327 329 330 331 331 332 332 333 335 337 338 340 341 343 343 345 347 349 350 350 351 351 352 353 353 355 356 357 357 357 357 358 359 360 361 361 362 362 362 361 360 361 361 362 362 362 361 360 359 359 359 359 359 359 359 359 360 360 358 358 357 357 356 355 354 354 355 356 356 356 355 354 352 350 348 346 345
318 318 319 319 320 321 323 324 327 329 329 329 330 331 331 331 332 333 335 337 339 341 342 343 345 347 349 350 351 352 352 352 353 353 354 355 355 355 356 356 357 357 359 359 360 360 359 359 359 359 360 361 362 362 361 360 359 358 358 359 359 360 359 359 360 359 357 356 356 356 356 354 354 354 355 354 352 351 351 351 349 347 345 344 343
317 317 318 319 320 321 322 324 327 328 329 329 329 329 330 329 329 330 332 334 336 339 341 342 343 344 345 347 348 349 349 350 351 351 352 352 352 352 353 353 354 355 356 357 357 358 357 357 356 355 355 357 358 358 358 357 357 357 358 359 359 359 359 358 357 355 354 354 355 355 355 354 354 353 351 350 348 346 346 346 345 344 343 342 340
317 317 318 319 320 321 323 324 327 328 328 328 327 327 328 328 327 328 329 331 333 335 337 339 340 342 343 344 344 345 345 346 347 348 349 349 349 349 349 349 350 351 351 352 353 354 353 352 351 350 350 351 353 355 355 355 356 357 357 357 357 355 354 354 353 352 352 353 354 354 353 353 351 350 347 344 342 340 339 339 338 338 337 335 334
316 317 319 319 320 321 323 324 326 327 326 326 325 326 326 326 325 325 325 326 328 330 331 332 334 335 337 339 340 340 341 341 342 343 344 344 344 344 343 343 344 345 346 346 346 346 346 346 345 344 343 344 346 349 350 351 353 354 354 353 352 351 350 351 351 350 349 349 350 351 350 350 349 347 345 342 339 336 334 333 332 330 329 329 329
316 318 319 320 321 321 323 324 325 325 324 323 323 323 323 323 322 322 322 322 323 324 325 326 326 328 330 331 332 333 334 335 336 336 337 338 338 337 337 336 337 337 338 338 337 337 337 337 336 335 335 335 337 340 341 342 344 346 347 347 346 346 347 347 348 348 348 348 347 346 345 344 342 340 338 337 336 333 331 330 328 328 327 328 328
315 317 319 320 321 322 323 324 324 323 322 321 320 320 321 320 320 319 319 318 319 320 320 320 321 322 323 325 326 327 328 329 329 329 329 330 330 330 330 330 331 332 332 333 333 332 332 331 330 329 329 329 330 332 334 335 337 339 341 341 340 340 341 342 343 344 344 344 342 340 339 338 335 333 331 330 330 329 329 328 328 327 327 327 327
314 315 317 319 321 322 322 322 321 319 319 318 318 318 318 318 317 317 316 316 316 316 316 316 316 316 318 319 320 321 322 322 322 321 321 321 322 322 322 323 323 323 323 324 325 326 326 324 323 323 324 325 326 327 328 328 328 330 332 332 332 332 333 334 335 336 336 335 334 333 332 331 330 329 328 327 327 327 327 327 327 326 326 326 325
Wind_Speed
34 33 32 32 30 29 27 26 26 26 26 27 27 27 26 24 23 22 21 20 20 20 20 20 20 19 18 18 17 16 15 15 15 15 15 15 14 14 13 12 12 11 10 10 10 11 11 10 10 10 10 10 10 11 12 13 14 13 13 13 12 12 12 12 13 14 12 9 8 7 8 9 9 9 10 12 12 12 12 13 15 17 19 20 20
36 34 34 33 32 30 29 28 27 26 26 27 27 27 27 26 25 24 23 22 21 21 20 20 21 21 20 20 19 18 17 16 15 15 15 15 14 14 13 13 12 12 11 11 11 11 11 11 11 10 11 12 12 12 12 12 13 14 13 13 13 12 12 12 13 14 14 12 10 8 8 8 9 9 11 12 13 12 11 12 14 16 18 20 21
36 35 34 34 32 31 31 30 29 28 27 27 27 27 27 27 27 27 25 24 23 22 21 21 21 21 21 22 21 20 19 18 17 16 15 15 14 13 13 12 12 12 12 11 11 11 12 12 11 11 11 12 12 12 13 13 13 14 13 13 14 13 12 13 14 15 16 14 12 10 9 9 9 9 10 12 12 12 11 12 14 16 18 19 20
38 37 35 34 34 34 33 32 31 30 29 28 27 27 27 28 28 28 28 27 26 24 23 22 22 21 22 23 23 22 21 20 20 18 17 16 16 15 14 14 14 13 13 13 13 13 13 14 13 13 13 13 13 13 13 14 13 14 14 14 14 14 13 14 15 15 16 16 14 12 11 11 10 10 10 11 11 11 11 13 14 16 17 17 18
39 39 38 37 36 36 35 34 34 33 31 30 28 27 27 28 28 29 29 29 29 28 26 25 24 23 23 24 24 23 23 23 22 21 20 19 18 17 17 16 16 16 16 15 15 15 15 15 15 15 15 15 14 14 14 14 14 15 15 15 15 14 14 14 14 15 16 17 17 15 14 13 12 11 11 12 12 12 12 13 14 15 16 16 17
37 38 39 39 38 38 37 36 35 34 33 32 30 28 28 28 28 28 29 30 30 29 29 29 28 26 25 25 25 25 25 24 24 23 22 21 20 20 19 19 19 18 18 18 18 17 16 16 16 16 17 17 16 16 15 15 15 15 16 16 15 15 15 15 15 16 17 18 19 19 18 16 14 13 13 13 13 13 14 15 15 16 16 16 16
38 38 38 38 39 39 38 37 36 35 34 32 31 30 29 29 28 28 28 29 30 30 30 30 30 29 28 28 28 27 27 27 26 25 24 24 23 23 22 22 21 21 20 20 20 19 19 18 17 17 17 17 17 17 17 16 16 17 16 16 16 16 16 16 16 17 19 20 21 21 21 19 18 16 15 14 15 15 15 16 16 18 18 18 16
40 39 38 39 39 39 38 37 37 36 34 33 32 32 31 31 30 29 28 29 29 30 31 31 31 31 31 30 30 30 29 29 29 28 27 26 26 25 24 24 23 23 22 22 22 22 21 20 19 18 18 18 17 17 18 18 18 18 18 17 17 17 17 18 18 19 20 21 22 22 22 22 21 19 18 17 17 15 14 15 16 18 20 21 19
38 38 39 39 39 39 38 38 38 37 36 35 34 33 33 32 31 31 30 29 29 30 31 31 32 32 32 32 32 32 32 31 30 29 28 28 27 26 26 25 25 25 25 24 24 24 23 22 21 21 19 18 18 18 18 18 18 19 18 18 19 19 19 20 20 21 22 23 24 23 24 24 22 21 20 19 18 16 15 15 17 19 20 22 22
37 37 38 39 39 38 38 38 39 39 38 37 36 35 34 33 33 32 31 30 30 30 30 31 32 33 33 34 34 34 34 33 31 30 29 28 28 28 28 27 27 27 27 27 27 26 25 25 24 23 21 20 20 20 20 19 19 19 19 19 19 20 20 21 22 22 23 24 25 24 24 24 23 21 22 21 19 16 15 15 17 19 21 22 24
35 36 37 37 37 37 37 38 38 39 38 37 37 36 36 35 34 33 32 31 30 30 30 30 30 31 33 34 34 35 35 34 32 31 30 30 29 29 29 29 29 29 29 29 29 28 27 27 26 25 24 23 22 22 21 21 21 21 20 20 20 20 21 21 22 23 23 24 25 24 25 25 23 21 22 21 19 17 16 16 17 19 21 23 24
29 33 37 38 36 36 37 38 38 38 37 37 37 37 37 36 35 33 32 32 31 30 30 30 29 29 30 32 33 35 36 34 33 32 31 31 30 30 30 30 30 30 30 30 30 30 29 29 28 27 26 25 23 23 23 23 22 22 22 21 21 21 21 22 23 23 23 24 25 25 24 24 23 22 21 20 19 18 17 18 18 19 21 23 24
27 29 32 36 37 36 37 38 38 38 38 37 37 38 38 37 36 35 34 33 32 31 31 30 29 29 29 30 31 33 34 35 34 33 32 31 31 31 31 31 31 31 31 31 31 31 31 30 29 29 28 26 25 24 24 24 23 23 22 22 23 23 23 23 24 24 24 24 25 26 25 24 23 21 20 20 19 20 20 20 21 22 23 24 25
25 26 27 30 33 35 36 37 37 38 38 37 37 38 38 38 37 36 36 36 35 33 31 31 30 30 29 30 30 30 31 33 34 33 33 33 32 32 32 32 32 32 32 32 31 31 31 31 30 30 29 28 27 25 24 24 24 23 23 23 24 24 24 25 25 25 25 25 26 27 25 24 23 22 21 21 21 22 23 23 23 24 25 26 27
18 21 23 26 29 31 34 35 35 35 35 34 35 37 39 40 39 39 39 38 37 34 32 32 32 30 29 30 30 30 30 30 31 31 31 32 32 32 32 33 33 33 32 32 32 31 31 31 31 30 29 29 28 26 24 23 23 23 23 24 25 25 26 27 27 26 26 26 26 27 26 25 24 23 22 23 23 23 23 24 25 26 27 27 28
11 14 18 23 26 29 31 33 34 35 33 31 31 32 33 37 39 40 41 40 39 37 34 33 32 31 29 30 31 31 30 29 29 29 29 29 29 30 31 32 33 33 33 32 31 31 31 31 31 30 29 29 27 25 24 23 22 23 23 24 25 26 28 28 28 27 27 27 27 27 27 26 26 25 24 24 24 23 23 24 25 25 25 25 26
7 10 16 22 26 28 29 30 32 35 35 34 33 30 27 29 32 37 40 41 41 39 36 33 32 31 30 30 30 30 30 29 28 28 27 27 28 29 31 32 33 33 33 32 31 31 30 30 30 29 29 29 27 25 23 23 23 24 24 24 25 27 29 29 29 29 28 28 28 28 27 27 27 26 25 25 24 22 22 24 24 23 22 23 25
4 4 8 14 21 26 28 29 31 33 34 35 36 34 32 31 29 30 34 37 39 40 38 35 33 31 31 30 30 30 29 29 28 27 26 26 26 28 30 32 33 33 33 32 32 31 30 30 30 29 30 29 27 25 23 23 24 24 24 25 26 28 30 30 30 30 29 29 29 29 28 28 28 28 27 25 23 22 23 24 23 21 22 23 24
3 3 3 5 11 19 24 27 29 30 32 33 34 33 34 35 33 30 29 31 33 37 39 38 36 34 32 31 30 30 30 29 29 28 26 26 26 27 28 30 32 34 34 33 33 32 31 30 30 30 30 29 27 26 25 25 25 26 25 25 27 30 30 29 29 30 29 29 29 29 28 28 28 29 28 26 24 23 24 24 23 22 24 24 24
3 3 4 4 6 11 16 21 23 26 28 30 30 30 30 32 34 33 32 31 31 33 36 38 37 35 34 32 32 31 30 30 29 28 27 26 26 26 27 28 31 34 35 34 34 33 32 31 31 31 31 30 28 27 26 26 27 26 25 26 29 30 28 27 28 28 28 29 29 29 28 28 28 29 29 28 26 25 25 24 23 23 25 25 25
3 2 3 4 5 8 12 15 18 21 23 25 26 27 27 27 28 30 31 31 31 32 34 35 36 36 35 34 34 32 31 29 28 27 26 26 26 26 27 29 30 33 35 35 35 34 34 32 32 31 30 29 29 28 27 27 27 26 26 27 28 26 23 23 25 26 27 28 28 27 27 27 27 28 29 28 27 26 26 25 24 23 25 26 27
6 5 4 4 5 7 10 13 16 18 20 23 25 27 27 26 25 27 30 31 32 34 34 34 35 35 35 36 36 34 31 29 27 27 26 26 26 27 28 29 30 30 32 35 36 36 35 34 33 31 29 29 29 28 27 27 26 26 27 26 24 21 19 19 20 23 24 25 25 25 25 25 26 27 28 27 26 26 25 25 24 24 26 27 27
9 8 7 5 5 6 9 11 14 18 19 21 23 26 28 28 26 25 28 30 33 36 35 34 34 35 35 36 36 34 33 30 28 28 28 26 26 27 28 29 29 29 31 34 36 36 35 34 32 30 29 29 28 27 27 26 26 27 26 24 21 19 18 18 19 21 22 23 23 23 23 23 25 26 27 26 25 24 24 24 25 25 26 27 27
10 9 9 8 6 5 7 9 11 15 18 19 20 21 24 25 24 22 23 26 31 36 36 32 30 32 32 31 29 29 31 32 30 29 28 28 27 27 28 28 28 29 31 33 34 35 35 34 32 29 28 28 27 26 25 25 26 27 26 23 21 20 20 21 21 22 23 24 25 25 24 24 25 26 26 25 24 24 24 24 25 26 26 26 26
12 10 10 11 10 7 6 8 9 11 15 18 20 20 20 22 23 19 18 22 28 34 36 31 26 27 28 27 25 24 27 30 30 28 28 28 28 28 29 29 29 29 31 32 33 33 33 32 30 27 26 26 25 24 25 27 27 27 26 24 23 23 23 23 23 24 26 27 27 27 26 25 25 26 26 25 24 24 24 24 25 25 26 25 26
15 13 11 11 12 9 7 8 9 10 12 16 21 21 19 21 23 20 18 20 25 31 36 33 26 24 26 27 24 22 23 28 30 29 28 29 29 29 29 30 29 30 31 32 31 31 30 29 27 26 25 24 25 26 27 28 27 27 26 26 25 25 25 25 26 27 28 29 29 29 27 25 25 26 26 25 25 24 23 23 23 23 24 24 25
18 17 14 12 12 11 9 8 9 10 11 13 18 21 20 21 23 23 23 24 27 32 36 32 27 26 29 30 27 22 23 28 30 29 29 30 30 30 30 30 30 30 31 32 31 30 29 27 26 26 25 25 26 27 28 29 29 30 30 30 29 28 28 28 28 29 29 30 31 31 29 27 27 27 26 25 25 24 23 23 24 24 23 22 23
20 19 17 15 13 12 10 9 10 12 12 13 16 20 22 23 23 25 26 25 27 31 33 32 32 34 34 35 34 31 31 33 31 28 29 30 29 29 29 30 30 30 31 31 29 28 28 27 27 28 28 28 29 30 31 32 32 33 33 32 31 30 30 29 29 30 31 32 32 32 31 29 29 29 27 26 26 26 25 26 27 28 26 25 27
21 20 19 17 15 14 13 13 12 13 15 16 17 20 23 25 26 28 29 26 27 30 32 34 37 38 37 37 39 38 36 32 27 25 26 27 27 27 27 27 28 28 27 26 26 27 28 29 30 31 31 32 33 34 35 35 34 34 34 34 32 31 31 31 31 32 33 33 33 34 33 32 31 30 29 29 29 28 28 29 29 29 29 29 30
23 21 20 19 18 17 17 17 15 14 16 19 20 20 22 25 27 30 32 31 32 34 37 38 39 40 40 40 40 40 37 31 26 27 28 27 26 26 25 24 24 24 22 23 25 28 30 32 33 34 34 35 35 36 37 36 35 35 35 35 33 32 32 32 32 32 33 33 34 34 33 32 31 31 30 31 31 31 31 31 29 29 29 29 28
24 23 21 21 20 19 19 19 18 16 16 19 21 21 20 22 25 29 32 33 34 35 39 41 42 43 43 42 42 42 40 34 31 32 32 30 28 25 24 23 22 20 20 21 24 26 28 30 32 34 36 37 37 38 37 37 36 36 35 35 34 32 32 32 31 31 32 33 32 31 31 31 31 31 31 31 32 33 34 32 30 29 29 29 28
26 24 23 22 21 21 21 21 20 19 17 18 21 23 22 22 24 27 30 33 34 35 36 38 40 41 43 43 44 44 42 38 36 35 34 32 29 26 24 24 23 22 22 24 25 26 27 29 31 33 35 37 38 38 37 37 37 36 35 35 35 33 31 30 29 28 29 30 30 29 29 29 30 30 31 32 33 35 35 33 32 30 28 28 28
27 26 24 23 22 22 22 22 21 21 19 18 21 24 24 24 26 28 29 30 32 33 34 34 35 36 38 40 42 43 42 40 38 37 36 34 32 29 27 26 26 26 26 27 28 28 28 29 30 31 34 35 36 36 36 36 36 36 35 35 35 33 29 26 25 26 28 29 29 27 27 28 29 30 31 32 33 34 34 34 32 29 27 27 26
28 27 25 24 24 24 24 23 23 22 20 20 22 26 27 26 27 30 31 30 30 31 32 32 32 31 32 33 35 38 39 38 37 36 35 33 32 31 31 30 29 28 29 30 31 31 30 30 30 31 32 33 32 32 33 35 36 36 36 35 34 32 28 26 26 28 29 29 29 28 28 29 29 29 30 31 32 33 34 33 32 29 28 27 25
29 29 26 25 26 26 25 25 25 25 24 22 22 26 28 28 27 29 32 33 32 31 30 29 29 28 28 28 29 31 33 34 34 35 34 33 32 33 34 34 33 32 32 33 33 33 32 31 31 31 32 32 31 30 30 32 34 35 35 34 33 31 29 28 28 30 31 31 30 29 29 29 29 29 28 29 31 33 33 32 31 29 27 25 23
30 30 28 26 27 27 26 26 26 28 28 26 23 26 29 29 28 29 31 33 33 33 32 30 28 27 27 27 27 28 27 28 28 29 31 32 33 34 36 36 36 36 36 36 35 34 34 33 33 32 32 32 30 29 29 30 32 33 33 32 32 31 30 30 31 32 32 31 31 30 30 30 30 29 28 29 31 31 30 29 29 27 25 23 22
30 31 29 28 28 28 28 27 27 28 30 28 25 25 27 28 28 30 31 31 31 33 33 31 29 29 28 27 27 26 23 22 23 24 26 29 32 35 37 37 37 38 39 38 37 36 35 35 35 34 33 32 31 30 28 28 30 32 32 32 32 31 30 30 31 32 32 32 32 32 31 29 29 29 28 28 28 27 26 27 27 25 24 23 23
30 30 30 30 29 29 29 28 27 28 28 27 25 24 25 26 28 30 29 28 30 32 32 32 32 31 28 25 24 23 22 20 21 22 23 25 28 31 34 36 37 39 39 38 37 37 36 37 37 36 35 34 32 30 29 29 29 30 31 32 31 31 31 30 31 32 32 32 32 32 30 29 28 28 27 26 25 24 24 25 25 24 25 24 23
30 30 30 30 30 30 30 30 29 28 28 26 24 23 23 25 27 26 24 24 27 30 32 33 34 33 29 24 22 22 22 21 21 21 21 22 23 25 28 31 33 35 37 38 37 37 37 37 37 37 36 36 34 32 31 30 30 31 31 32 32 32 32 32 31 32 32 32 32 31 29 28 28 27 25 24 23 23 23 23 23 24 24 24 23
30 30 30 30 30 30 30 30 30 29 28 25 23 23 23 24 25 25 23 23 24 27 29 32 33 33 32 28 25 23 23 22 21 21 20 21 22 22 24 26 28 31 34 36 37 38 38 39 39 38 37 37 36 34 33 32 32 33 33 33 33 34 34 33 32 32 33 33 32 30 28 27 26 25 24 23 22 21 21 22 23 24 24 25 24
30 30 30 30 30 29 29 29 29 28 26 25 24 23 23 22 22 22 22 23 24 25 26 28 29 31 33 32 29 26 23 22 21 21 21 22 23 23 23 25 27 28 31 33 36 39 40 41 40 38 38 38 38 36 35 35 35 36 36 36 36 35 34 33 33 33 33 33 31 28 27 26 26 25 24 22 20 20 21 23 25 25 24 24 23
29 30 30 29 28 28 28 29 28 26 24 23 23 23 23 22 21 20 21 23 25 25 25 25 26 29 32 32 31 28 25 24 23 22 22 23 24 25 25 25 26 28 29 31 34 36 39 41 40 39 39 39 38 38 37 37 37 38 39 38 38 37 35 33 33 32 32 31 29 26 26 27 26 25 23 21 19 21 23 24 25 26 23 20 18
29 29 28 26 26 26 27 27 25 23 21 21 21 21 22 21 21 20 22 24 26 26 25 24 24 25 26 27 27 27 26 26 26 26 25 25 25 25 24 25 26 28 30 31 32 34 37 39 41 43 42 41 40 40 40 40 39 38 37 36 36 36 34 32 32 32 32 31 28 26 27 28 26 24 23 21 20 21 21 21 21 20 18 15 14
27 26 25 24 24 25 24 23 21 20 19 19 19 20 20 20 20 20 22 24 25 25 25 24 23 23 23 23 23 24 25 26 26 27 26 26 25 25 24 25 26 28 29 31 32 33 34 36 39 42 44 43 42 42 42 41 40 38 35 33 33 33 32 31 32 33 32 30 28 28 28 27 25 22 21 20 18 17 18 18 16 15 14 13 12
25 22 21 22 22 22 21 20 19 18 18 18 18 19 19 18 18 19 21 23 23 23 23 23 22 22 23 23 23 24 24 25 25 25 25 25 25 25 25 25 26 27 29 30 31 32 33 34 37 40 42 42 42 42 41 40 39 37 34 32 33 33 33 32 33 33 31 28 28 28 28 25 22 19 18 16 15 14 16 18 17 14 12 11 10
20 18 18 19 19 19 18 17 17 17 18 18 18 18 18 18 17 18 19 20 21 21 21 21 22 22 22 22 22 23 23 23 23 24 24 25 25 25 25 25 26 27 28 30 30 31 33 33 34 36 38 39 39 38 37 37 37 35 33 33 34 34 32 31 30 29 27 27 27 27 25 22 19 17 15 13 14 14 15 16 15 13 12 11 10
15 15 15 16 16 16 15 15 16 17 17 17 17 17 17 18 17 17 17 18 18 19 19 20 21 21 20 21 21 21 21 22 22 23 24 25 26 26 26 26 27 27 28 29 30 31 32 32 32 32 34 35 35 34 34 35 36 33 32 33 34 31 27 25 23 22 23 24 25 24 22 19 17 16 15 14 15 14 14 13 12 12 12 11 10
13 13 13 13 13 12 12 14 15 16 16 15 15 14 15 15 15 15 15 15 16 16 16 16 17 17 17 18 18 18 19 19 20 21 23 23 24 24 24 24 25 26 27 28 28 28 28 28 28 28 28 28 30 31 32 33 33 32 30 30 29 25 23 22 22 21 20 20 20 20 18 17 17 17 18 18 17 15 12 12 11 11 11 10 10
11 12 11 11 11 11 11 12 14 15 15 14 13 12 12 12 12 13 13 13 12 12 12 11 11 12 13 13 13 13 13 14 15 17 18 19 20 20 20 20 21 22 23 23 23 22 22 22 22 22 21 22 23 25 26 26 26 26 25 24 23 23 24 25 24 23 21 20 19 18 18 18 18 18 19 19 18 15 14 13 12 12 11 11 11
11 12 12 11 10 10 11 12 14 15 14 12 10 9 9 9 9 10 10 10 9 9 8 8 8 8 8 9 8 8 8 9 10 11 12 13 14 14 15 15 16 18 19 20 20 20 20 20 20 19 19 20 21 23 25 27 28 27 25 25 24 24 24 24 23 22 20 19 17 17 16 17 17 17 16 16 15 15 15 15 15 13 12 11 10
12 13 12 11 11 10 10 12 13 13 12 10 8 7 7 7 7 7 7 7 7 7 8 8 8 8 8 8 8 8 8 8 8 9 9 10 10 11 12 13 13 14 13 13 14 17 19 21 23 25 26 27 26 25 26 27 28 29 27 25 24 23 22 22 22 21 19 18 17 16 16 15 15 15 15 14 14 14 13 13 13 12 10 9 7
Wind_Direction
233 234 233 233 234 233 233 232 232 232 232 232 233 233 233 233 234 235 234 233 232 231 231 232 233 234 235 235 235 236 237 239 242 244 247 249 250 250 250 250 252 254 254 254 255 257 259 258 258 257 259 261 262 264 266 267 269 270 272 275 278 281 285 289 295 302 309 313 313 313 306 299 299 299 298 299 299 299 301 305 310 314 316 319 321
236 236 235 235 235 236 235 235 234 234 234 234 234 233 233 233 234 235 235 235 234 233 231 231 232 232 233 234 234 235 236 236 239 241 244 248 251 254 257 258 259 260 259 260 260 261 262 262 261 260 260 261 262 262 264 267 268 269 271 274 277 279 283 286 290 296 302 308 310 311 306 297 296 293 292 294 294 292 293 300 308 312 316 318 321
239 238 238 237 238 238 238 238 237 236 236 237 237 235 234 234 234 234 236 236 236 235 233 232 232 231 232 233 233 233 233 232 233 235 239 243 248 254 259 262 264 266 266 266 267 267 268 267 266 266 264 264 263 262 263 265 267 269 271 272 275 277 278 282 286 290 295 299 302 305 302 296 293 291 288 289 290 289 290 299 307 311 315 318 320
240 241 240 239 239 239 239 240 240 239 238 238 239 238 237 236 234 234 235 237 237 237 235 233 233 233 234 234 232 231 230 230 231 233 236 242 248 254 260 264 266 269 270 269 268 268 269 271 273 272 271 269 266 264 264 265 267 271 273 273 274 276 276 277 279 282 286 291 294 297 296 295 294 291 289 288 285 281 286 296 304 309 312 317 321
241 243 243 241 240 240 241 241 241 241 240 240 240 240 240 240 238 235 235 236 238 238 237 236 234 233 234 234 233 231 230 231 233 235 238 243 249 255 261 265 267 270 271 271 269 268 268 270 271 270 271 271 270 268 267 267 268 269 272 274 275 275 275 274 274 275 279 284 288 292 292 292 291 289 289 289 283 277 281 289 297 303 308 313 321
242 243 243 242 241 242 242 242 242 242 242 242 242 242 242 243 243 240 237 237 238 239 239 239 237 236 234 234 234 234 233 235 236 238 241 245 250 255 260 264 267 269 271 271 272 271 269 269 268 267 266 267 269 270 270 270 270 269 271 273 273 273 273 272 273 274 276 279 284 288 291 291 290 288 288 288 285 282 283 286 290 296 303 308 317
242 242 242 242 242 243 244 244 244 244 244 244 244 244 244 244 245 244 243 241 240 240 240 240 240 239 238 237 237 237 238 239 240 241 243 247 250 254 258 262 265 267 268 270 272 272 271 269 268 266 264 264 265 266 267 269 269 270 271 271 271 271 271 272 274 275 277 279 282 285 288 289 288 289 289 288 287 286 288 290 290 293 301 306 312
243 243 242 242 244 245 246 246 246 246 246 246 246 246 246 246 247 247 246 245 244 243 242 242 242 242 242 241 240 240 241 242 244 244 246 248 251 254 256 259 262 265 266 268 269 270 270 269 267 265 263 262 261 261 263 265 267 268 269 269 269 269 270 271 273 275 277 279 281 283 285 286 287 289 290 290 288 287 290 293 291 292 298 303 309
244 244 244 244 246 248 248 247 248 248 248 248 248 248 248 248 248 248 248 248 247 246 245 244 244 244 244 244 243 243 243 244 244 245 247 249 252 254 257 258 261 264 265 266 267 267 267 267 265 263 261 260 259 258 259 261 264 266 268 268 268 268 268 269 271 274 276 278 280 283 284 284 285 287 289 289 288 286 289 293 292 291 294 300 306
246 245 246 248 250 251 250 250 250 250 250 250 249 249 249 250 250 249 249 249 249 249 248 247 246 245 245 245 246 246 245 245 244 245 247 250 253 255 258 259 261 263 264 265 265 265 264 264 263 260 259 257 256 255 256 257 259 262 265 266 267 267 267 268 269 272 274 277 279 282 284 284 285 286 287 287 285 286 289 291 291 292 294 299 304
246 245 246 250 252 252 252 251 252 253 254 253 252 252 251 251 251 251 251 251 250 251 250 249 248 247 246 246 246 247 247 246 246 246 247 249 252 255 258 259 260 262 262 263 263 263 263 262 262 260 257 255 255 254 253 254 255 257 259 261 263 265 266 267 268 270 272 275 278 280 282 284 286 286 285 284 285 286 290 290 290 293 296 299 303
241 245 248 250 252 252 252 252 253 254 255 256 255 255 254 253 253 253 253 252 252 252 252 251 250 249 249 248 247 248 248 247 247 247 247 248 250 253 256 258 259 259 260 260 261 261 261 261 260 260 257 255 255 255 253 252 252 254 255 257 259 260 262 264 267 269 271 273 275 277 280 284 287 287 284 283 285 287 290 290 289 291 293 295 299
232 239 245 249 251 251 251 252 254 254 256 257 257 257 256 255 256 255 254 254 254 253 253 253 253 252 251 251 249 249 249 248 247 247 247 247 249 251 254 255 256 257 258 258 259 258 258 258 258 258 257 255 254 255 253 252 251 252 253 254 255 256 258 260 263 266 268 270 272 275 279 283 285 285 284 282 285 288 290 291 291 291 292 292 294
238 237 241 244 247 249 249 250 252 253 254 256 257 257 258 259 259 258 257 256 256 255 254 254 254 253 253 254 253 253 252 250 249 247 247 247 247 249 251 252 254 255 256 256 256 256 256 256 256 256 256 255 254 253 253 252 252 252 252 253 254 254 255 257 259 262 264 265 269 273 277 280 281 283 283 282 284 287 289 290 290 289 290 291 292
252 243 241 241 240 242 244 246 249 251 254 256 257 258 259 260 260 260 258 258 258 258 257 256 256 256 255 255 256 255 253 252 251 250 248 247 246 247 248 249 251 252 253 253 253 253 254 254 255 254 254 254 253 252 252 252 252 253 253 252 253 253 254 255 258 260 261 263 266 270 275 278 280 281 282 282 284 285 286 287 286 285 287 290 291
271 253 245 242 239 239 243 247 250 252 254 256 257 259 260 262 263 262 260 259 259 260 259 257 257 256 256 256 257 256 255 253 253 252 250 248 248 248 247 247 248 249 250 250 251 251 251 252 252 252 252 252 252 251 251 252 252 254 254 253 253 254 254 256 257 258 260 261 263 267 272 275 277 279 279 280 282 284 285 284 282 284 287 288 289
300 267 249 245 243 243 245 248 251 252 252 252 253 254 256 259 261 261 260 260 259 260 260 259 258 257 257 256 256 256 256 255 255 255 253 251 250 249 247 245 246 246 247 247 248 248 248 248 249 250 250 251 251 250 248 249 251 253 254 255 255 255 255 257 258 258 259 260 262 265 268 271 274 275 276 276 277 279 279 278 280 285 288 287 289
331 278 252 246 242 241 241 242 244 248 250 251 254 255 255 255 256 256 257 258 257 258 260 261 261 259 258 257 257 257 257 257 257 256 255 254 252 250 248 246 245 244 244 245 246 246 246 246 246 247 249 250 250 249 247 246 248 251 253 255 256 256 257 258 260 261 260 260 261 263 265 268 270 272 274 274 272 270 269 272 278 284 286 286 289
356 311 285 257 241 239 241 244 246 249 250 251 254 256 257 258 257 255 253 254 256 257 259 260 262 262 260 260 259 258 258 257 257 256 254 253 253 251 250 249 246 243 242 243 244 245 245 245 245 246 248 249 249 248 246 245 246 249 251 253 254 256 258 260 261 263 263 263 263 263 264 265 267 269 270 270 267 264 265 270 275 280 282 285 288
16 328 298 280 252 240 242 248 252 253 253 252 251 252 255 258 259 257 254 254 256 257 257 259 262 262 262 262 261 259 257 256 256 255 252 252 252 251 252 251 247 242 240 240 242 243 243 243 244 246 247 249 248 247 246 246 247 248 248 250 253 256 260 261 261 261 263 263 264 264 264 264 265 267 269 268 267 264 264 267 271 276 281 284 285
345 342 306 288 270 250 243 247 251 253 254 255 253 251 251 253 254 256 256 255 254 256 258 259 261 263 263 263 262 259 256 254 254 254 252 251 251 251 251 250 246 243 242 241 240 242 241 241 243 245 247 248 248 246 245 246 247 248 247 249 253 257 260 261 261 261 261 261 262 263 264 264 264 266 268 269 269 268 268 269 271 275 279 280 280
310 305 295 289 279 263 251 247 247 249 250 251 252 252 250 248 249 254 257 255 254 257 260 260 261 263 263 262 261 259 255 253 253 253 251 250 250 249 248 247 246 247 247 244 241 240 239 239 241 243 245 246 246 245 244 244 245 246 248 249 251 254 257 258 258 259 259 260 261 262 262 263 264 265 266 268 271 274 277 278 277 276 276 276 275
307 302 293 289 282 270 260 251 246 246 246 245 246 249 250 250 250 253 256 257 258 260 262 261 261 262 261 261 261 259 255 252 251 251 251 250 249 248 247 246 246 248 249 246 243 241 240 240 240 240 242 244 244 242 241 241 242 245 248 249 249 250 253 254 253 254 255 258 260 260 260 262 264 265 267 270 274 279 282 283 282 280 278 277 275
306 300 293 288 285 273 266 260 252 249 247 242 241 244 246 246 247 251 255 257 259 262 262 260 258 257 256 256 256 256 255 253 251 250 250 251 250 248 245 245 245 247 248 247 245 244 243 241 239 237 239 240 241 240 239 239 241 243 245 247 247 247 248 250 250 252 254 256 258 259 260 261 264 267 271 275 278 280 281 281 282 283 282 279 276
305 297 289 286 284 279 269 261 257 257 254 248 244 245 244 244 245 248 252 253 256 259 259 256 252 251 252 251 250 251 254 255 253 251 251 251 250 248 245 244 244 245 247 248 248 247 246 244 241 239 238 238 238 236 235 236 237 239 241 243 243 244 246 248 249 250 251 254 257 260 262 264 267 270 273 275 276 278 280 283 284 285 284 279 274
305 298 291 284 280 277 273 262 256 259 260 255 250 248 249 250 249 249 251 253 255 257 256 253 250 249 249 249 248 247 249 252 254 253 252 250 247 245 244 243 243 245 247 248 249 249 249 248 246 243 240 237 235 233 233 234 235 236 237 239 240 242 243 245 247 248 251 254 258 261 264 267 269 271 272 274 276 278 281 283 284 284 282 278 274
306 300 294 288 279 274 273 267 260 259 261 260 257 252 248 250 252 252 251 250 250 252 251 249 247 248 250 250 248 244 247 253 255 253 251 248 244 241 241 241 242 244 245 246 246 247 248 248 247 245 241 237 235 233 233 233 233 233 234 235 237 240 242 244 247 249 252 255 258 262 265 266 267 269 270 272 273 274 276 278 279 280 277 272 269
305 302 297 290 283 279 273 264 260 262 261 259 257 252 247 244 245 247 248 247 245 246 246 248 250 252 254 256 255 253 255 257 255 251 249 247 243 241 240 241 241 242 242 243 245 247 249 250 248 246 242 238 235 234 233 232 232 233 234 235 236 238 241 244 247 249 252 255 258 261 263 263 264 265 265 266 267 269 271 273 275 278 273 264 261
302 302 299 292 288 286 278 267 263 266 265 259 252 247 245 243 241 241 242 241 242 244 246 250 254 256 258 259 259 259 259 259 258 258 257 255 252 249 246 245 245 245 245 247 250 251 250 249 248 247 244 240 238 236 236 236 235 235 236 237 238 239 241 243 246 249 251 254 257 259 260 261 261 261 261 262 264 265 267 269 271 273 271 264 262
298 301 300 295 291 290 285 277 271 268 268 266 260 252 246 244 242 242 243 242 242 245 249 250 252 254 257 259 260 260 261 262 265 269 270 269 267 263 258 254 254 253 253 254 254 253 252 250 249 248 246 244 242 240 240 240 239 238 238 239 240 240 242 244 246 249 252 254 255 258 260 261 262 262 261 263 265 267 268 269 269 268 267 267 268
295 300 301 298 294 292 289 284 277 270 267 270 271 268 262 255 248 245 247 248 248 249 251 251 249 249 251 254 257 259 260 260 262 266 269 270 271 269 265 262 262 261 259 257 255 253 251 250 249 248 248 247 246 244 243 243 243 241 241 242 243 243 244 246 247 248 251 254 255 257 259 261 262 264 265 266 268 268 268 267 265 261 261 265 270
292 296 300 299 295 291 290 288 282 275 271 272 273 272 272 270 263 251 245 247 251 253 253 253 251 249 248 249 252 256 257 257 259 263 266 268 270 269 267 266 266 266 264 260 256 251 248 247 247 247 248 249 249 248 247 246 245 244 243 245 246 245 244 246 248 249 250 252 253 255 257 261 265 268 269 269 269 267 265 263 259 258 259 264 268
288 291 296 300 296 289 287 288 285 279 274 274 276 275 271 271 271 264 252 245 247 250 253 254 254 252 250 249 250 252 254 255 258 262 265 267 267 267 268 269 269 268 265 261 256 251 248 246 246 247 249 250 251 251 250 248 247 246 245 246 247 248 247 247 248 249 249 250 252 254 257 263 268 272 273 271 267 263 261 258 256 256 259 262 265
285 286 290 296 296 290 285 285 286 281 273 267 268 272 271 269 270 270 266 257 250 248 248 250 252 254 253 250 249 250 252 254 256 259 262 264 265 267 269 269 267 264 262 258 255 253 250 249 247 248 251 252 253 253 252 249 248 248 248 247 247 248 248 246 246 247 249 250 253 255 258 263 269 273 273 270 265 260 259 257 255 255 258 262 266
283 284 285 290 293 291 285 283 285 283 277 268 260 260 266 270 269 268 269 268 264 258 254 251 252 254 256 254 252 252 254 255 256 257 259 262 264 265 265 264 262 260 257 256 254 253 252 251 249 248 250 253 254 254 253 251 249 248 248 248 247 246 245 244 244 248 250 252 255 257 260 265 270 270 269 266 262 259 260 260 261 261 261 263 267
283 282 282 284 289 290 285 280 281 283 282 278 267 255 257 265 269 266 266 267 267 266 264 260 257 255 255 252 251 252 255 257 259 258 259 261 262 262 261 260 259 259 258 256 255 255 254 254 253 251 250 252 253 254 253 251 250 249 248 248 248 247 245 243 245 249 252 256 259 262 264 268 269 268 265 262 259 257 258 261 263 263 263 263 264
283 282 281 281 285 289 287 281 279 281 283 283 277 265 259 260 262 263 265 267 266 266 266 265 261 257 256 252 249 250 255 260 260 258 257 258 258 258 258 257 257 257 258 258 258 257 258 258 258 256 254 253 253 252 250 248 247 248 248 248 248 247 245 244 246 251 255 258 260 263 267 268 268 267 264 258 254 253 255 258 259 259 260 259 256
281 280 279 280 282 286 288 284 279 281 283 283 281 276 268 262 259 259 263 266 265 264 266 267 264 261 261 258 255 255 258 261 261 257 256 257 257 257 258 257 256 257 258 259 260 260 260 260 260 259 258 257 255 253 250 246 244 245 246 247 248 248 247 246 247 252 256 257 259 263 266 266 265 263 259 253 251 252 253 254 255 256 257 255 252
280 278 276 278 281 284 287 285 281 281 283 284 280 275 270 265 261 260 264 268 265 261 262 264 265 263 262 261 261 263 264 265 263 261 261 262 262 262 262 261 260 260 260 261 263 263 261 260 259 259 258 256 254 252 250 246 242 241 242 245 247 248 248 247 249 252 254 255 258 262 264 263 260 257 252 249 250 251 250 250 250 250 252 253 254
279 277 274 275 279 282 285 284 281 280 282 283 280 272 267 264 262 261 265 272 272 267 264 265 265 264 261 259 259 262 266 268 268 268 269 268 266 266 266 266 264 262 260 261 262 262 261 260 259 258 258 257 254 250 248 244 241 238 237 239 243 246 247 246 248 249 251 253 256 260 260 257 252 247 245 247 249 250 249 249 249 248 249 252 254
278 275 272 273 277 281 283 283 281 280 281 283 282 275 269 266 265 265 269 274 276 274 273 271 267 262 258 256 255 257 262 267 268 268 268 268 267 266 265 265 264 262 260 260 260 260 259 259 259 258 259 259 256 252 248 244 241 238 236 235 236 238 242 244 245 246 247 250 254 256 254 249 245 243 245 246 246 246 248 249 252 253 251 248 247
277 273 271 273 276 280 283 282 280 279 280 283 284 280 274 269 267 267 269 271 271 270 269 268 265 261 257 256 255 256 259 262 264 263 262 263 264 265 264 265 267 266 265 264 263 262 263 263 261 260 259 260 260 258 253 248 243 239 237 235 233 232 235 239 242 242 244 247 250 249 244 240 239 241 244 243 240 243 247 249 249 250 245 236 230
275 271 271 273 276 279 282 282 281 280 282 285 288 287 281 274 267 264 264 264 265 265 265 262 260 259 259 258 257 257 258 260 261 262 262 263 266 267 267 267 266 266 265 266 266 267 267 266 264 261 260 259 260 260 257 252 247 242 239 238 236 232 232 234 238 239 240 242 243 239 234 232 234 237 240 239 236 238 243 244 240 233 224 213 209
272 270 270 272 276 279 280 281 282 285 287 289 291 293 289 280 269 263 261 260 261 262 263 262 259 256 255 254 254 253 254 254 256 258 260 263 266 268 268 266 264 262 261 261 262 264 265 266 264 263 261 260 260 261 259 255 251 247 244 241 239 236 232 232 236 238 239 237 234 230 228 229 232 235 238 239 236 233 233 232 223 209 197 193 197
270 269 269 272 275 278 279 281 284 287 288 287 288 290 288 282 271 262 258 256 256 255 257 259 259 257 254 251 250 250 251 251 253 255 258 260 261 263 263 262 261 259 258 258 258 260 261 262 262 262 261 259 259 260 258 254 251 248 245 243 242 240 238 236 237 239 237 231 225 224 226 229 233 236 237 237 230 220 215 213 208 200 198 201 205
269 269 269 271 275 278 279 282 284 284 282 281 281 282 281 277 270 261 254 251 250 249 249 252 254 255 255 253 252 251 251 250 250 252 254 256 257 258 257 255 254 254 254 255 256 258 259 259 259 258 257 256 255 256 255 251 246 242 240 240 242 242 241 239 238 236 230 221 216 218 221 223 223 223 220 215 206 199 196 196 196 198 203 208 209
264 265 268 270 273 279 283 285 282 279 277 276 277 278 277 273 266 258 252 247 243 242 242 244 245 248 251 252 252 252 251 249 248 249 250 251 253 253 252 251 249 248 249 250 252 253 254 253 251 250 249 248 248 249 249 247 242 238 235 237 238 237 234 230 225 219 213 209 211 215 217 216 212 206 197 188 184 183 183 183 183 186 192 196 199
256 258 262 265 269 277 283 282 278 275 273 270 270 272 273 269 261 252 246 242 238 236 236 237 238 240 243 245 247 247 247 247 248 248 248 248 249 249 249 248 246 244 242 241 241 241 241 240 240 239 238 238 238 238 236 233 231 229 227 227 226 221 211 204 199 192 186 187 195 203 207 209 207 201 192 186 183 181 178 176 175 178 184 187 190
246 247 251 256 262 270 277 278 276 272 266 262 260 262 263 261 255 246 239 235 232 229 228 229 231 233 235 237 239 241 243 246 247 246 245 245 244 243 241 240 239 237 235 231 227 225 222 219 218 217 213 210 211 211 207 202 201 202 202 199 194 187 181 179 179 179 179 181 183 185 185 186 186 183 181 181 181 177 172 168 168 171 175 176 180
236 235 237 241 248 256 264 268 268 264 258 251 248 250 252 250 245 238 232 225 219 214 211 212 213 214 216 218 221 225 229 233 235 235 235 234 232 231 228 225 222 220 218 214 210 205 199 193 186 181 175 170 169 171 168 163 161 163 167 167 165 163 162 162 163 166 171 175 175 173 173 174 173 169 164 163 163 161 160 159 159 160 164 168 172
225 220 221 226 232 239 251 258 258 254 248 241 233 231 234 235 232 226 221 215 204 191 184 181 178 175 174 172 171 173 177 179 181 182 181 179 178 179 179 179 176 171 168 170 173 173 166 156 147 144 143 141 139 141 142 139 134 135 139 143 142 140 139 141 142 145 148 150 152 154 156 160 162 159 153 150 150 151 151 151 150 151 155 162 169